Regional Weather Roundup
Issued by NWS Portland, ME

Home | Current Version | Previous Version | Text Only | Print | Product List | Glossary On
Versions: 1 2 3 4 5 6 7 8 9 10 11 12 13 14 15 16 17 18 19 20 21 22 23 24 25 26 27 28 29 30 31 32 33 34 35 36 37 38 39 40 41 42 43 44 45 46 47 48 49 50
000
ASUS41 KGYX 300010
RWRGYX
WEATHER ROUNDUP FOR MAINE AND NEW HAMPSHIRE
NATIONAL WEATHER SERVICE GRAY ME
800 PM EDT FRI MAY 29 2015

MEZ002-005-006-010-012-015-018-020-021-024-026-027-029-300100-
MAINE

CITY           SKY/WX    TMP DP  RH WIND       PRES   REMARKS
PORTLAND       FOG       61  59  93 S9        30.26S VSB 1/4
6HR MIN TEMP:  61; 6HR MAX TEMP:  75;

SANFORD        PTCLDY    61  54  77 CALM      30.26S
BAR HARBOR     CLEAR     63  59  88 SW3       30.25S
WISCASSET      CLOUDY    63  59  87 VRB5      30.27S
6HR MIN TEMP:  62; 6HR MAX TEMP:  74;

ROCKLAND       CLOUDY    59  57  94 CALM      30.25F VSB 1
FRYEBURG       MOCLDY    70  58  65 SE6       30.22S
6HR MIN TEMP:  70; 6HR MAX TEMP:  83;

LEWISTONAUBURN CLOUDY    61  55  82 S9        30.25S
AUGUSTA        PTCLDY    64  59  83 S8        30.24S
6HR MIN TEMP:  64; 6HR MAX TEMP:  78;

WATERVILLE     PTCLDY    68  57  68 S6        30.21R
BANGOR         MOCLDY    66  59  78 S8        30.24S
6HR MIN TEMP:  66; 6HR MAX TEMP:  77;

GREENVILLE       N/A     66  54  65 VRB3      30.20F
6HR MIN TEMP:  66; 6HR MAX TEMP:  74;

MILLINOCKET    PTCLDY    70  58  65 VRB3      30.21F
6HR MIN TEMP:  70; 6HR MAX TEMP:  78;

HOULTON        CLEAR     68  56  65 S3        30.19S
6HR MIN TEMP:  68; 6HR MAX TEMP:  76;

PRESQUE ISLE   PTCLDY    70  52  52 S7        30.17S
6HR MIN TEMP:  70; 6HR MAX TEMP:  75;

FRENCHVILLE    PTCLDY    66  51  58 SE8       30.15F
6HR MIN TEMP:  66; 6HR MAX TEMP:  73;

CARIBOU        PTCLDY    69  54  58 S7        30.16F
6HR MIN TEMP:  69; 6HR MAX TEMP:  75;

$$

NHZ002-005-008-009-011-012-014-300100-
NEW HAMPSHIRE

CITY           SKY/WX    TMP DP  RH WIND       PRES   REMARKS
PORTSMOUTH     MOCLDY    59  57  93 E6        30.23F
ROCHESTER      PTCLDY    65  57  75 S6        30.23F
6HR MIN TEMP:  65; 6HR MAX TEMP:  79;

NASHUA         PTCLDY    75  61  62 SE6       30.23S
MANCHESTER     MOCLDY    73  61  65 SE8       30.21S
6HR MIN TEMP:  73; 6HR MAX TEMP:  81;

CONCORD        PTCLDY    72  60  66 SE7       30.22R
6HR MIN TEMP:  72; 6HR MAX TEMP:  82;

LACONIA        MOCLDY    72  57  60 S10G17    30.18F
PLYMOUTH       FAIR      74  64  69 E3        30.19F
BERLIN         MOCLDY    73  57  57 CALM      30.20S
6HR MIN TEMP:  73; 6HR MAX TEMP:  82;

WHITEFIELD     CLOUDY    72  57  59 CALM      30.19F
6HR MIN TEMP:  72; 6HR MAX TEMP:  81;

JAFFREY        MOCLDY    71  61  70 SE5       30.24S
6HR MIN TEMP:  71; 6HR MAX TEMP:  79;

KEENE          CLOUDY    70  63  78 CALM      30.21S
LEBANON        CLOUDY    71  61  70 S3        30.17F
6HR MIN TEMP:  71; 6HR MAX TEMP:  83;

MT WASHINGTON  FOG       50  50 100 SW9         N/A  VSB 1/4
6HR MIN TEMP:  50; 6HR MAX TEMP:  59;

$$

VTZ005-007-008-300100-
VERMONT

CITY           SKY/WX    TMP DP  RH WIND       PRES   REMARKS
ST JOHNSBURY     N/A     75  53  46 MISG      30.15F
MONTPELIER     MOCLDY    70  57  63 S3        30.22F
BURLINGTON     MOCLDY    76  52  43 S8        30.13F
$$

MAZ007-012-024-CTZ003-RIZ002-NYZ038-NYZ072-300100-
SOUTHERN NEW ENGLAND AND NY

CITY           SKY/WX    TMP DP  RH WIND       PRES   REMARKS
BOSTON         FOG       55  55 100 E7        30.26S VSB 1/4
WORCESTER      MOCLDY    73  58  59 SE14      30.25S
NANTUCKET      CLOUDY    60  56  86 CALM      30.26S
PROVIDENCE     MOCLDY    66  57  72 S8        30.26R
HARTFORD       MOCLDY    76  58  53 S9        30.20S
ALBANY         CLOUDY    79  55  43 S9        30.17F
NEW YORK CITY  MOCLDY    72  56  57 SE13      30.22F
$$

ANZ081-ANZ082-ANZ150-NHZ014-MEZ023>029-300100-
COASTAL MARINE OBSERVATIONS

STATION/POSITION TIME  TEMP    WIND        PRES    WAVE
                       AIR SEA DIR/SP/G            HT/PER
                 (UTC) (F)     (DEG/KT/KT) (MB)    (FT/S)
MOUNT DESERT ROC 0000   53     210/ 10/ 10   N/A
MATINICUS ROCK   0000   54     240/  7/  8   N/A
ISLE OF SHOALS   0000   54     120/ 12/ 13   N/A
JEFFREYS LEDGE   2303      53                N/A     2/ 7
CASHES LEDGE BUO 2350   56 53                N/A     2/ 9
GEORGES BANK BUO 2250   57 54   CALM  /  2   N/A     3/ 9
$$

.............KEY..............
   WCI - WIND CHILL
   TC  - TEMPERATURE IN CELSIUS
   VSB - VISIBILITY IN MILES
   HX  - HEAT INDEX
   FAIR- INDICATES FEW OR NO CLOUDS BELOW 12,000 FT, WITH NO
         SIGNIFICANT WEATHER AND/OR OBSTRUCTIONS TO VISIBILITY.





USA.gov is the U.S. government's official web portal to all federal, state and local government web resources and services.